Location: ???? ??????? ????
(31.2176°N, 31.6797°E)
Time: 17:46:56
(UTC+00:00)

CSL-04 Rocket - Pass Details

Date: 29 October 2020
Orbit: 805 x 861 km, 98.9° (Epoch: 30 November)

Event Time Altitude Azimuth Distance (km) Brightness Sun altitude
Exits shadow 16:52:33 30° 145° (SE) 1,488 4.7 -23.1°
Maximum altitude 16:55:16 64° 74° (ENE) 946 3.6 -23.7°
Drops below altitude 10° 17:00:44 10° 354° (N) 2,486 6.2 -24.8°
Sets 17:03:07 0° 352° (N) 3,418 7.0 -25.4°
